Lid_Strength_Index
0 -0 -0 -1 -1 -1 -1 -1 -1 -1 -1 -1 -1 -1 -1 -1 -1 -1 -0 0 0 1 1 1 2 2 6 10 11 6 3 5 6 6 8 9 11 12 13 13 12 12 12 11 11 11 11
0 -0 -0 -1 -1 -1 -1 -1 -1 -1 -1 -1 -1 -1 -1 -0 -0 -0 0 0 1 1 1 2 2 2 9 12 7 6 7 7 8 8 9 9 10 10 12 13 14 12 12 12 12 12 12
-0 -0 -1 -1 -1 -1 -1 -1 -1 -0 -0 -0 -0 -0 -0 -0 0 0 0 1 1 2 2 3 2 6 10 11 7 7 8 8 8 8 9 8 8 10 11 12 11 12 14 13 13 12 12
-0 -0 -1 -1 -1 -1 -1 -1 -0 -0 -0 -0 -0 -0 -0 0 0 1 1 2 2 2 3 3 3 9 12 7 7 8 8 9 8 7 8 8 8 9 11 11 13 14 14 15 13 12 12
-0 -0 -1 -1 -1 -1 -1 -1 -1 -0 -0 -0 -0 -0 0 1 1 1 2 2 3 3 3 4 8 10 12 6 10 9 8 9 9 9 8 7 9 12 12 14 15 15 16 16 15 13 13
-1 -1 -1 -1 -1 -1 -1 -1 -1 -1 -0 -0 0 0 1 1 1 1 2 3 3 4 6 7 8 10 11 12 10 9 8 9 10 10 10 11 13 14 15 14 17 16 17 17 17 15 15
-1 -1 -1 -1 -1 -1 -1 -1 -1 -1 -1 -0 0 0 0 -0 1 2 6 6 8 9 9 11 11 13 12 10 9 10 8 10 11 12 14 13 14 16 15 15 15 16 17 17 16 15 15
-1 -1 -1 -1 -1 -1 -1 -1 -1 -1 -1 -0 0 0 0 0 2 4 8 10 10 10 12 10 10 12 11 10 13 11 9 12 12 15 14 13 16 14 14 14 15 16 17 17 16 15 15
-1 -1 -1 -1 -1 -1 -1 -1 -1 -1 -1 -0 0 0 0 0 2 5 8 10 8 9 13 11 11 12 12 10 12 11 10 12 14 14 15 15 14 14 14 15 16 17 17 17 17 15 15
-0 -1 -1 -1 -1 -1 -1 -1 -1 -1 -1 -0 -0 -0 0 1 4 6 9 7 7 9 16 15 13 12 11 11 13 9 10 12 13 14 15 15 14 15 15 16 16 17 15 15 16 17 19
1 1 0 -0 -1 -1 -1 -1 -1 -1 -0 0 0 0 1 3 5 6 7 7 8 10 20 13 13 9 10 13 12 11 9 11 14 14 13 14 15 15 16 15 15 16 14 15 16 18 19
3 2 2 1 1 1 1 1 0 -1 -0 0 1 0 2 4 6 6 7 8 10 15 20 15 13 13 13 12 12 11 11 10 12 14 14 14 13 14 14 14 14 14 16 17 18 19 22
4 4 4 4 3 3 3 2 1 1 1 1 1 1 2 3 5 7 8 8 15 19 13 14 14 13 14 13 13 13 13 14 14 16 16 15 15 14 13 15 14 15 17 20 22 23 21
4 4 4 4 4 4 4 4 3 2 2 2 2 2 3 4 6 7 7 11 17 15 15 13 14 13 14 12 13 14 15 15 14 15 17 18 18 15 14 15 16 16 17 19 24 23 21
5 5 5 5 4 4 4 4 4 3 3 3 3 5 5 6 6 6 8 15 15 14 13 13 14 15 15 13 13 15 15 15 14 14 16 18 18 15 15 14 15 17 18 17 19 21 23
6 5 5 5 5 5 5 5 5 4 4 3 5 6 7 6 6 6 10 13 12 10 11 12 15 14 16 14 15 16 15 14 14 14 14 16 19 16 15 14 14 16 15 19 19 24 24
5 6 6 5 5 5 6 5 5 5 5 4 6 9 8 6 6 9 13 12 10 9 10 12 14 14 14 14 14 15 14 14 14 15 14 16 17 18 16 17 17 17 17 18 18 19 22
6 6 6 6 6 6 6 6 6 6 6 6 7 13 8 7 12 11 13 11 9 10 9 11 11 12 13 13 14 14 14 12 12 13 15 15 17 19 18 16 16 16 17 17 19 20 21
6 6 6 6 5 5 6 6 6 6 6 8 11 11 8 8 15 14 12 12 11 11 10 11 12 11 11 12 14 13 13 12 13 13 14 14 17 20 18 18 17 17 17 16 17 17 17
5 6 6 6 5 5 5 5 6 6 6 8 12 16 12 11 11 13 14 14 13 11 11 10 11 11 12 13 12 13 12 12 13 13 10 11 15 17 18 18 18 19 17 16 15 18 17
5 6 6 5 6 5 5 5 6 6 6 9 12 15 13 16 15 13 13 14 14 14 11 11 12 12 13 14 13 13 12 12 11 11 11 12 16 16 15 16 15 15 16 15 16 15 16
5 5 5 5 5 5 6 6 6 7 6 10 13 14 12 14 13 14 14 15 15 15 14 14 14 13 12 13 13 14 13 13 15 12 12 12 16 15 17 15 15 16 15 15 14 13 13
4 4 5 5 5 5 5 6 6 6 6 10 9 9 12 15 15 15 15 15 14 13 13 12 13 14 15 14 11 11 11 11 12 13 14 14 15 16 20 17 17 20 17 15 13 12 12
-0 1 3 4 5 4 4 4 5 5 6 8 9 9 13 16 15 15 14 14 14 14 14 13 12 13 12 11 11 12 13 12 13 12 11 14 14 14 17 17 22 18 16 13 13 12 11
-1 -1 -0 1 3 4 3 3 4 5 4 7 8 10 13 16 14 14 14 14 13 13 13 12 12 11 10 11 14 15 16 16 16 13 12 10 12 15 17 17 16 15 14 15 15 14 12
-1 -1 -1 -1 1 1 1 1 2 4 4 5 6 6 10 14 15 13 14 13 14 14 14 13 11 10 9 11 14 17 18 18 18 18 15 11 10 13 17 19 21 17 15 13 12 16 12
-1 -1 -1 -1 -1 -1 -0 -0 0 0 1 4 6 4 7 12 11 11 13 13 11 12 13 13 12 11 8 11 13 15 16 14 17 17 17 14 13 15 15 17 15 12 13 11 15 14 13
-1 -1 -1 -1 -1 -1 -1 -1 -0 -0 0 2 5 4 6 9 9 7 7 9 9 9 11 11 11 11 10 12 13 13 14 13 14 15 15 15 15 16 14 16 18 12 13 13 11 13 13
-2 -1 -2 -1 -1 -1 -1 -1 -0 -0 -0 0 4 2 2 6 8 6 6 5 5 5 7 8 8 9 9 11 11 11 13 12 14 15 14 15 13 14 13 14 12 12 12 11 12 12 13